When you browse on this site, cookies collect data to enhance your experience and personalize the content and advertising you see.
Visit our Privacy Policy to learn more. By continuing to use the site, you agree to this use of cookies and data.
  • Em Portugal
  • Lista de países
  • Para 7 dias
  • Temperatura da água
  • Mapa do tempo
  • Widgets de tempo
  • user-avatar
    Iniciar Sessão

    Previsão horária em Dinagepoor

    Hoje, 26 Maio, Terça-feira

    Tempo Temperatura Precipitação Vento Pressão Humidade
    00:00 +32°C° 0 mm 6 m/s 749 mmHg 81%
    01:00 +32°C° 0 mm 6 m/s 748 mmHg 82%
    02:00 +32°C° 0 mm 5 m/s 748 mmHg 83%
    03:00 +32°C° 0 mm 4 m/s 748 mmHg 85%
    04:00 +32°C° 0 mm 4 m/s 748 mmHg 84%
    05:00 +32°C° 0 mm 4 m/s 748 mmHg 83%
    06:00 +31°C° 0 mm 3 m/s 749 mmHg 83%
    07:00 +31°C° 0 mm 3 m/s 749 mmHg 79%
    08:00 +33°C° 0 mm 4 m/s 749 mmHg 75%
    09:00 +34°C° 0 mm 4 m/s 750 mmHg 71%
    10:00 +36°C° 0 mm 4 m/s 749 mmHg 62%
    11:00 +38°C° 0 mm 3 m/s 749 mmHg 53%
    12:00 +38°C° 0 mm 3 m/s 749 mmHg 53%
    13:00 +42°C° 0 mm 3 m/s 748 mmHg 42%
    14:00 +44°C° 0 mm 3 m/s 747 mmHg 31%
    15:00 +46°C° 0 mm 3 m/s 746 mmHg 21%
    16:00 +44°C° 0 mm 4 m/s 746 mmHg 30%
    17:00 +42°C° 0 mm 5 m/s 745 mmHg 39%
    18:00 +39°C° 0 mm 5 m/s 746 mmHg 54%
    19:00 +37°C° 0.8 mm 5 m/s 747 mmHg 60%
    20:00 +36°C° 0.8 mm 5 m/s 748 mmHg 65%
    21:00 +35°C° 0.8 mm 5 m/s 748 mmHg 71%
    22:00 +34°C° 0.1 mm 5 m/s 748 mmHg 72%
    23:00 +33°C° 0.1 mm 5 m/s 748 mmHg 74%

    Amanhã, 27 Maio, Quarta-feira

    Tempo Temperatura Precipitação Vento Pressão Humidade
    00:00 +33°C° 0.1 mm 5 m/s 748 mmHg 76%
    01:00 +32°C° 0 mm 5 m/s 748 mmHg 76%
    02:00 +32°C° 0 mm 5 m/s 748 mmHg 77%
    03:00 +30°C° 0 mm 4 m/s 748 mmHg 77%
    04:00 +30°C° 0 mm 4 m/s 748 mmHg 77%
    05:00 +30°C° 0 mm 4 m/s 748 mmHg 78%
    06:00 +30°C° 0 mm 4 m/s 748 mmHg 78%
    07:00 +32°C° 0 mm 5 m/s 749 mmHg 73%
    08:00 +33°C° 0 mm 5 m/s 749 mmHg 68%
    09:00 +34°C° 0 mm 5 m/s 750 mmHg 64%
    10:00 +35°C° 0 mm 5 m/s 749 mmHg 59%
    11:00 +37°C° 0 mm 5 m/s 749 mmHg 55%
    12:00 +38°C° 0 mm 4 m/s 749 mmHg 50%
    13:00 +39°C° 0 mm 5 m/s 748 mmHg 51%
    14:00 +39°C° 0 mm 6 m/s 748 mmHg 52%
    15:00 +39°C° 0 mm 7 m/s 747 mmHg 53%
    16:00 +35°C° 0.4 mm 7 m/s 747 mmHg 60%
    17:00 +33°C° 0.4 mm 7 m/s 747 mmHg 67%
    18:00 +29°C° 0.4 mm 6 m/s 746 mmHg 74%
    19:00 +28°C° 0.8 mm 7 m/s 747 mmHg 76%
    20:00 +27°C° 0.8 mm 7 m/s 748 mmHg 79%
    21:00 +27°C° 0.8 mm 7 m/s 749 mmHg 81%
    22:00 +26°C° 0 mm 6 m/s 750 mmHg 82%
    23:00 +26°C° 0 mm 6 m/s 750 mmHg 83%

    Depois de amanhã, 28 Maio, Quinta-feira

    Tempo Temperatura Precipitação Vento Pressão Humidade
    00:00 +26°C° 0 mm 5 m/s 750 mmHg 84%
    01:00 +26°C° 1.1 mm 5 m/s 750 mmHg 84%
    02:00 +27°C° 1.1 mm 6 m/s 750 mmHg 83%
    03:00 +27°C° 1.1 mm 7 m/s 749 mmHg 83%
    04:00 +26°C° 0.3 mm 7 m/s 750 mmHg 84%
    05:00 +26°C° 0.3 mm 7 m/s 750 mmHg 85%
    06:00 +26°C° 0.3 mm 6 m/s 750 mmHg 86%
    07:00 +26°C° 0.6 mm 6 m/s 750 mmHg 85%
    08:00 +26°C° 0.6 mm 6 m/s 751 mmHg 84%
    09:00 +27°C° 0.6 mm 7 m/s 751 mmHg 84%
    10:00 +27°C° 0.8 mm 6 m/s 751 mmHg 83%
    11:00 +27°C° 0.8 mm 6 m/s 751 mmHg 83%
    12:00 +27°C° 0.8 mm 6 m/s 751 mmHg 83%
    13:00 +28°C° 0.3 mm 6 m/s 750 mmHg 79%
    14:00 +30°C° 0.3 mm 6 m/s 750 mmHg 76%
    15:00 +32°C° 0.3 mm 6 m/s 749 mmHg 73%
    16:00 +30°C° 0.2 mm 6 m/s 749 mmHg 75%
    17:00 +30°C° 0.2 mm 7 m/s 748 mmHg 78%
    18:00 +29°C° 0.2 mm 8 m/s 747 mmHg 80%
    19:00 +29°C° 1.3 mm 8 m/s 748 mmHg 82%
    20:00 +28°C° 1.3 mm 8 m/s 749 mmHg 84%
    21:00 +28°C° 1.3 mm 7 m/s 750 mmHg 86%
    22:00 +27°C° 0 mm 7 m/s 751 mmHg 86%
    23:00 +27°C° 0 mm 6 m/s 751 mmHg 87%

    29 Maio, Sexta-feira

    Tempo Temperatura Precipitação Vento Pressão Humidade
    00:00 +26°C° 0 mm 5 m/s 752 mmHg 87%
    01:00 +26°C° 0.4 mm 5 m/s 752 mmHg 88%
    02:00 +26°C° 0.4 mm 5 m/s 751 mmHg 89%
    03:00 +26°C° 0.4 mm 6 m/s 751 mmHg 89%
    04:00 +24°C° 0.1 mm 6 m/s 751 mmHg 89%
    05:00 +24°C° 0.1 mm 6 m/s 751 mmHg 89%
    06:00 +24°C° 0.1 mm 6 m/s 751 mmHg 88%
    07:00 +26°C° 0 mm 6 m/s 752 mmHg 86%
    08:00 +27°C° 0 mm 5 m/s 752 mmHg 84%
    09:00 +27°C° 0 mm 5 m/s 753 mmHg 82%
    10:00 +28°C° 0 mm 5 m/s 752 mmHg 79%
    11:00 +29°C° 0 mm 6 m/s 752 mmHg 75%
    12:00 +30°C° 0 mm 6 m/s 752 mmHg 72%
    13:00 +32°C° 0 mm 6 m/s 752 mmHg 67%
    14:00 +33°C° 0 mm 5 m/s 751 mmHg 63%
    15:00 +34°C° 0 mm 5 m/s 750 mmHg 58%
    16:00 +33°C° 0.1 mm 5 m/s 750 mmHg 61%
    17:00 +33°C° 0.1 mm 6 m/s 750 mmHg 64%
    18:00 +32°C° 0.1 mm 6 m/s 749 mmHg 67%
    19:00 +30°C° 1.4 mm 6 m/s 750 mmHg 72%
    20:00 +29°C° 1.4 mm 5 m/s 750 mmHg 77%
    21:00 +28°C° 1.4 mm 5 m/s 751 mmHg 82%
    22:00 +28°C° 2.3 mm 5 m/s 751 mmHg 84%
    23:00 +27°C° 2.3 mm 5 m/s 751 mmHg 87%

    30 Maio, Sábado

    Tempo Temperatura Precipitação Vento Pressão Humidade
    00:00 +27°C° 2.3 mm 5 m/s 751 mmHg 89%
    01:00 +27°C° 1.3 mm 5 m/s 751 mmHg 89%
    02:00 +27°C° 1.3 mm 4 m/s 751 mmHg 90%
    03:00 +27°C° 1.3 mm 4 m/s 751 mmHg 90%
    04:00 +27°C° 0.1 mm 4 m/s 751 mmHg 90%
    05:00 +27°C° 0.1 mm 5 m/s 751 mmHg 91%
    06:00 +26°C° 0.1 mm 5 m/s 751 mmHg 91%
    07:00 +28°C° 0 mm 5 m/s 752 mmHg 87%
    08:00 +29°C° 0 mm 5 m/s 752 mmHg 83%
    09:00 +30°C° 0 mm 5 m/s 753 mmHg 79%
    10:00 +32°C° 0 mm 4 m/s 753 mmHg 74%
    11:00 +33°C° 0 mm 4 m/s 753 mmHg 69%
    12:00 +34°C° 0 mm 4 m/s 752 mmHg 64%
    13:00 +35°C° 0.1 mm 4 m/s 752 mmHg 62%
    14:00 +35°C° 0.1 mm 3 m/s 751 mmHg 61%
    15:00 +36°C° 0.1 mm 3 m/s 750 mmHg 59%
    16:00 +35°C° 0.1 mm 3 m/s 750 mmHg 61%
    17:00 +35°C° 0.1 mm 3 m/s 749 mmHg 63%
    18:00 +35°C° 0.1 mm 3 m/s 749 mmHg 65%
    19:00 +34°C° 0.9 mm 3 m/s 749 mmHg 70%
    20:00 +33°C° 0.9 mm 3 m/s 750 mmHg 75%
    21:00 +32°C° 0.9 mm 4 m/s 751 mmHg 80%
    22:00 +30°C° 2 mm 4 m/s 751 mmHg 84%
    23:00 +29°C° 2 mm 4 m/s 751 mmHg 87%

    31 Maio, Domingo

    Tempo Temperatura Precipitação Vento Pressão Humidade
    00:00 +28°C° 2 mm 3 m/s 751 mmHg 91%
    01:00 +28°C° 0.1 mm 3 m/s 751 mmHg 90%
    02:00 +28°C° 0.1 mm 3 m/s 751 mmHg 90%
    03:00 +28°C° 0.1 mm 3 m/s 751 mmHg 90%
    04:00 +28°C° 0 mm 3 m/s 751 mmHg 90%
    05:00 +28°C° 0 mm 3 m/s 752 mmHg 90%
    06:00 +28°C° 0 mm 3 m/s 752 mmHg 91%
    07:00 +29°C° 0 mm 3 m/s 752 mmHg 85%
    08:00 +30°C° 0 mm 4 m/s 753 mmHg 79%
    09:00 +33°C° 0 mm 4 m/s 753 mmHg 73%
    10:00 +34°C° 0 mm 4 m/s 753 mmHg 69%
    11:00 +35°C° 0 mm 3 m/s 752 mmHg 65%
    12:00 +36°C° 0 mm 3 m/s 752 mmHg 62%
    13:00 +36°C° 0 mm 3 m/s 751 mmHg 59%
    14:00 +37°C° 0 mm 2 m/s 750 mmHg 56%
    15:00 +37°C° 0 mm 1 m/s 750 mmHg 52%
    16:00 +37°C° 0 mm 1 m/s 749 mmHg 53%
    17:00 +37°C° 0 mm 1 m/s 749 mmHg 53%
    18:00 +37°C° 0 mm 1 m/s 748 mmHg 54%
    19:00 +36°C° 0.3 mm 2 m/s 749 mmHg 60%
    20:00 +35°C° 0.3 mm 2 m/s 749 mmHg 66%
    21:00 +32°C° 0.3 mm 2 m/s 749 mmHg 72%
    22:00 +32°C° 0.5 mm 2 m/s 750 mmHg 74%
    23:00 +31°C° 0.5 mm 2 m/s 750 mmHg 77%
    Mostrar mais